Content
SEND FEEDBACK

Daily
Averages
Monthly
Summary
United States of America

PARMA, IDAHO


Home > North America > United States > Idaho
Elevation: 2236 feet     Latitude: 43 47N     Longitude: 116 57W

WEATHER
 
SELECT A DAY
Number of Records: 164,168;   Date Range: 4/9/97 - 8/12/14
 
SHARE

PRINT THIS DATA

[ ← Previous Day ]
WEATHER ALMANAC - JANUARY 31, 2013
[ Next Day → ]
[ °C ]   °F
Weather ElementAverageHighLow
Temperature34 °F44.1 °F (3:53 pm)28.4 °F (6:03 am)
Dewpoint30.3 °F36 °F (2:53 pm)26.6 °F (6:03 am)
Humidity86.7 %93 % (6:03 am)71 % (1:53 pm)
Barometer30.39 in30.44 in (10:53 am)30.36 in (6:03 am)
Wind Speed1.8 mph5.8 mph (3:53 pm)
Weather ElementAverage
Visibility7 mi
Wind DirectionESE (101.7 °)

Weather ElementTotal
Precipitation---
Heating Degree Days28.8 (Base 65)
Averaged from 24 records on January 31, 2013
WEATHER CONDITIONS BREAKOUT
WIND DIRECTION BREAKOUT
WEATHER BY HOUR - JANUARY 31, 2013
[ °C ]   °F
Local TimeTemperatureDewpointHumidityBarometerVisibilityWind DirectionWind SpeedGust SpeedPrecipitationEventsConditions
1:53 AM30.0 °F27.0 °F88 %30.40 in5.0 miCalmClear
2:53 AM30.0 °F28.0 °F92 %30.42 in6.0 miCalmClear
3:53 AM28.9 °F27.0 °F92 %30.41 in5.0 miCalmClear
4:53 AM30.0 °F28.0 °F92 %30.40 in5.0 miNNE (30°)3.5 mphClear
5:53 AM28.9 °F27.0 °F92 %30.40 in2.0 miCalmClear
6:03 AM28.4 °F26.6 °F93 %30.36 in3.0 miNW (320°)3.5 mphClear
6:53 AM28.9 °F27.0 °F92 %30.42 in5.0 miCalmClear
7:53 AM30.9 °F28.9 °F92 %30.42 in6.0 miCalmMostly Cloudy
8:53 AM32.0 °F30.0 °F92 %30.42 in4.0 miCalmOvercast
9:53 AM34.0 °F30.9 °F89 %30.43 in5.0 miCalmOvercast
10:53 AM35.1 °F32.0 °F89 %30.44 in5.0 miCalmOvercast
11:53 AM35.1 °F32.0 °F89 %30.44 in5.0 miCalmOvercast
12:53 PM39.9 °F33.1 °F77 %30.42 in10.0 miNNE (30°)3.5 mphOvercast
1:53 PM43.0 °F34.0 °F71 %30.40 in10.0 miCalmScattered Clouds
2:53 PM43.0 °F36.0 °F76 %30.37 in10.0 miCalmClear
3:53 PM44.1 °F35.1 °F71 %30.36 in10.0 miNorth (350°)5.8 mphClear
4:53 PM42.1 °F34.0 °F73 %30.36 in10.0 miNorth (360°)4.6 mphClear
5:53 PM39.0 °F33.1 °F79 %30.36 in10.0 miNorth (360°)3.5 mphClear
6:53 PM34.0 °F30.9 °F89 %30.36 in10.0 miCalmClear
7:53 PM33.1 °F30.0 °F89 %30.37 in10.0 miWSW (240°)4.6 mphMostly Cloudy
8:53 PM32.0 °F30.0 °F92 %30.36 in9.0 miWest (260°)3.5 mphClear
9:53 PM32.0 °F30.0 °F92 %30.36 in7.0 miCalmMostly Cloudy
10:53 PM32.0 °F28.9 °F88 %30.36 in9.0 miWSW (250°)5.8 mphScattered Clouds
11:53 PM30.0 °F28.0 °F92 %30.36 in8.0 miWSW (240°)4.6 mphPartly Cloudy
Hourly data recorded from KONO, located miles away from Parma, Idaho







STORIES FROM OUR PARTNERS